Regional Weather Roundup
Issued by NWS

Home | Current Version | Previous Version | Graphics & Text | Print | Product List | Glossary On
Versions: 1 2 3 4 5 6 7 8 9 10 11 12 13 14 15 16 17 18 19 20 21 22 23 24 25 26 27 28 29 30 31 32 33 34 35 36 37 38 39 40 41 42 43 44 45 46 47 48 49 50
000
ASUS43 KBIS 311859
RWRND

NORTH DAKOTA REGIONAL WEATHER ROUNDUP
NATIONAL WEATHER SERVICE BISMARCK ND
200 PM CDT FRI OCT 31 2014

NOTE: "FAIR" INDICATES FEW OR NO CLOUDS BELOW 12,000 FEET WITH NO
SIGNIFICANT WEATHER AND/OR OBSTRUCTIONS TO VISIBILITY.


NDZ001>003-009>011-017-312000-
NORTHWEST NORTH DAKOTA

CITY           SKY/WX    TMP DP  RH WIND       PRES   REMARKS
WILLISTON      SUNNY     44  26  49 SE16G31   30.11F
MINOT          MOSUNNY   39  15  37 SE21G30   30.28F
$$

NDZ018>021-031>035-040>046-312000-
SOUTHWEST NORTH DAKOTA

CITY           SKY/WX    TMP DP  RH WIND       PRES   REMARKS
BISMARCK       SUNNY     38  19  46 SE21      30.37F
GARRISON         N/A     35  22  58 S23G29    30.27F
HETTINGER ARPT MOSUNNY   40  20  44 SE23G33   30.20F
$$

NDZ004>008-012>016-024-026-027-054-312000-
NORTHEAST NORTH DAKOTA

CITY           SKY/WX    TMP DP  RH WIND       PRES   REMARKS
GRAND FORKS    MOSUNNY   37  19  48 S10       30.51F
DEVILS LAKE    SUNNY     36  16  44 S15       30.41F
$$

NDZ022-023-025-028>030-036>039-047>053-312000-
SOUTHEAST NORTH DAKOTA

CITY           SKY/WX    TMP DP  RH WIND       PRES   REMARKS
FARGO          SUNNY     38  21  50 S9        30.52F
$$




USA.gov is the U.S. government's official web portal to all federal, state and local government web resources and services.